FENGYUN 1C DEB, 36656

Orbit data source: Space-Track

FENGYUN 1C DEB, 36656 is space debris in SSO originally from a launch on Mon, 10 May 1999 UTC launched from the Taiyaun Space Center, China (TSC). Fengyun 1C debris stems from the Chinese weather satellite Fengyun-1C, which was intentionally destroyed by a Chinese anti-satellite missile in 2007. This event dramatically increased the amount of space debris, with thousands of trackable fragments posing hazards to satellites and human spaceflight. The Fengyun 1C debris cloud has become a focal point in discussions about space sustainability and the need for international regulations to prevent the creation of new debris.

Loading next visibility...
Identifier
36656, 1999-025DYA
Orbit
SSO
Country
Flag of CNCN / PRC
Related business
Manufacturer
Unknown
Mission
Spacecraft
Bus & Motor
Unknown
Mass
Unknown
Launch date (UTC)
1999-05-10 (27 years ago)
Launch vehicle
Unknown
Launch site
Taiyaun Space Center, China (TSC)
Object type
Payload
Rocket body
Debris
Shape & HBR
Unknown shape, 0.1 m
Radar Cross Section
Small (<0.1 m²)

Expand to show TLE details & history
Last TLE update: 3 weeks ago

TLE from 3 weeks ago
0 FENGYUN 1C DEB
1 36656U 99025DYA 26156.03903960  .00000567  00000-0  60432-3 0  9997
2 36656  97.4348 249.3227 0333569  56.1400 307.1015 13.54919389612050
Epoch: 2026-06-05T00:56Z
TLE epoch observation values (Epoch: 2026-06-05T00:56:13.021Z)
Latitude
-0.00001°
Longitude
-18.20623°
Altitude
912.917 km
Speed
7.467 km/s
True Right ascension
16h 37m 17s
True Declination
0° 00' 00"
Sunlit
Object was in full shadow at epoch
Visualization orbit readout
Latitude
Unknown
Longitude
Unknown
Altitude
Unknown
Speed
Unknown
Apparent Right ascension
Unknown
Apparent Declination
Unknown
Sunlit
N/A
Visualization observer readout
Local Sidereal Time
06:56:30
Azimuth
Unknown
Elevation
Unknown
Doppler factor
Unknown
Orbital elements
Apogee altitude
1,299.227 km
Perigee altitude
803.574 km
Semi-major axis
7,429.538 km
Eccentricity
0.03336
Inclination
97.4348°
RAAN
249.3227°
Arg. of periapsis
56.14°
True anomaly
303.97584°
Mean anomaly
307.1015°
Eccentric anomaly
305.54645°
Mean motion
3.38923 °/min
Orbital period
106.22 mins
BSTAR
0.00060432
Loading maneuver chart data...
Computing Atmospheric mass density...

Documentation

Showing up to 5 results
|